Tracking 30703 objects as of 12-Jun-2025
HD Live streaming from Space Station
objects crossing your sky now

METEOR 2-17 DEB

Track METEOR 2-17 DEB now!
10-day predictions


NORAD ID: 35373
Int'l Code: 1988-005AH
Perigee: 884.0 km
Apogee: 913.7 km
Inclination: 82.5 °
Period: 102.8 minutes
Semi major axis: 7269 km
RCS: 0.0092 m2 (small)
Launch date: January 30, 1988
Source: Commonwealth of Independent States (former USSR) (CIS)
Launch site: PLESETSK MISSILE AND SPACE COMPLEX (PKMTR)

Note: This is SATELLITE DEBRIS
Your satellite tracking list
Your tracking list is empty




NASA's NSSDC Master Catalog

Two Line Element Set (TLE):
1 35373U 88005AH  25151.42426980  .00001485  00000-0  98756-3 0  9997
2 35373  82.5295 208.6894 0020440 298.8425  61.0692 14.00599333538815
Source of the keplerian elements: AFSPC